Fort Knox, KY

9:58 PM EDT on April 26, 2017 (GMT -0400)
Godman Army Air Field

Weather History for KFTK - December, 2013

Change the Weather History Date:

Saturday, December 28, 2013

  Actual Average Record
Temperature  
Mean Temperature 39 °F -  
Max Temperature 47 °F 39 °F 66 °F (1996)
Min Temperature 31 °F 25 °F 14 °F (2000)
Degree Days  
Heating Degree Days 26    
Moisture  
Dew Point 27 °F    
Average Humidity 61    
Maximum Humidity 73    
Minimum Humidity 46    
Precipitation  
Precipitation 0.00 in - - ()
Sea Level Pressure  
Sea Level Pressure 30.24 in    
Wind  
Wind Speed 5 mph (South)    
Max Wind Speed 12 mph    
Max Gust Speed -    
Visibility 10 miles    
Events      
Averages and records for this station are not official NWS values.
T = Trace of Precipitation, MM = Missing Value Source: NWS Daily Summary

Daily Weather History Graph

Daily Weather History Graph

Search for Another Location

Airport or City:

Trip Planner

Search our weather history database for the weather conditions in past years. The results will help you decide how hot, cold, wet, or windy it might be!

Date:

Astronomy

Dec. 28, 2013 Rise Set
Actual Time 7:58 AM EST 5:32 PM EST
Civil Twilight 7:29 AM EST 6:01 PM EST
Nautical Twilight 6:56 AM EST 6:34 PM EST
Astronomical Twilight 6:24 AM EST 7:06 PM EST
Moon 3:37 AM EST (12/28) 2:21 PM EST (12/28)
Length of Visible Light 10h 32m
Length of Day
9h 33m
Waning Crescent, 19% of the Moon is Illuminated
Dec 28
Waning Crescent
Jan 1
New
Jan 7
First Quarter
Jan 15
Full
Jan 24
Last Quarter

Hourly Weather History & Observations

Time (EST) Temp. Windchill Dew Point Humidity Pressure Visibility Wind Dir Wind Speed Gust Speed Precip Events Conditions
12:58 AM 34.2 °F 30.0 °F 24.4 °F 68% 30.35 in 10.0 mi SSW 4.6 mph - N/A   Clear
1:58 AM 33.6 °F 28.4 °F 23.7 °F 67% 30.32 in 10.0 mi SSW 5.8 mph - N/A   Clear
2:58 AM 33.8 °F 27.7 °F 23.2 °F 65% 30.32 in 10.0 mi SSW 6.9 mph - N/A   Clear
3:58 AM 32.7 °F 27.3 °F 22.6 °F 66% 30.33 in 10.0 mi SSW 5.8 mph - N/A   Clear
4:58 AM 31.6 °F 26.0 °F 23.0 °F 70% 30.31 in 10.0 mi SSW 5.8 mph - N/A   Clear
5:58 AM 33.6 °F 30.6 °F 23.0 °F 65% 30.32 in 10.0 mi South 3.5 mph - N/A   Clear
6:58 AM 31.5 °F - 22.8 °F 70% 30.32 in 10.0 mi South 2.3 mph - N/A   Clear
7:58 AM 31.3 °F 25.6 °F 22.5 °F 70% 30.32 in 10.0 mi South 5.8 mph - N/A   Clear
8:58 AM 33.1 °F 30.0 °F 22.5 °F 65% 30.30 in 10.0 mi SSE 3.5 mph - N/A   Clear
9:58 AM 34.5 °F 29.4 °F 26.8 °F 73% 30.31 in 10.0 mi South 5.8 mph - N/A   Clear
10:58 AM 43.0 °F 38.2 °F 27.1 °F 54% 30.32 in 10.0 mi SSW 8.1 mph - N/A   Clear
11:58 AM 45.9 °F 42.9 °F 27.5 °F 49% 30.28 in 10.0 mi South 5.8 mph - N/A   Clear
12:58 PM 47.1 °F - 29.1 °F 50% 30.27 in 10.0 mi South 11.5 mph - N/A   Scattered Clouds
1:58 PM 47.8 °F - 28.4 °F 47% 30.23 in 10.0 mi South 5.8 mph - N/A   Partly Cloudy
2:58 PM 47.3 °F - 27.3 °F 46% 30.21 in 10.0 mi South 5.8 mph - N/A   Clear
3:58 PM 46.0 °F 42.5 °F 29.7 °F 53% 30.19 in 10.0 mi SSE 6.9 mph - N/A   Scattered Clouds
4:58 PM 44.4 °F 42.0 °F 28.0 °F 53% 30.19 in 10.0 mi South 4.6 mph - N/A   Mostly Cloudy
5:58 PM 43.7 °F 42.1 °F 26.8 °F 51% 30.18 in 10.0 mi SSE 3.5 mph - N/A   Overcast
6:58 PM 41.7 °F 38.0 °F 28.2 °F 59% 30.15 in 10.0 mi SE 5.8 mph - N/A   Scattered Clouds
7:58 PM 42.4 °F - 28.0 °F 57% 30.12 in 10.0 mi ENE 2.3 mph - N/A   Partly Cloudy
8:30 PM 41.0 °F 38.0 °F 32.0 °F 70% 30.07 in 10.0 mi East 4.6 mph - N/A   Scattered Clouds
8:58 PM 41.4 °F 38.4 °F 32.7 °F 71% 30.10 in 10.0 mi ESE 4.6 mph - 0.00 in   Scattered Clouds
9:30 PM 41.0 °F 38.0 °F 32.0 °F 70% 30.05 in 10.0 mi East 4.6 mph - N/A   Scattered Clouds